{"data":{"norad_id":65760,"intl_designator":"2025-216AC","name":"STARLINK-34890","alt_names":[],"object_type":"PAYLOAD","status":"ACTIVE","operator":null,"country":"US","launch_date":"2025-09-25","launch_site_code":"AFETR","launch_vehicle":null,"mission":null,"orbit_class":"UNKNOWN","rcs_meters":null,"size_class":null,"mass_kg":null,"dimensions":null,"purposes":["comms"],"wikipedia_slug":null,"has_3d_model":false,"image_url":null,"decayed_at":null,"tle_current":{"epoch":"2026-05-24T22:29:11.059584Z","epoch_age_seconds":83668,"freshness":"FRESH","line1":"1 65760U 25216AC  26144.93693356  .00012209  00000+0  42355-3 0  9996","line2":"2 65760  53.1622 338.2814 0001054  85.9828 274.1294 15.30208678 38217","mean_motion":15.30208678,"eccentricity":0.0001054,"inclination_deg":53.1622,"raan_deg":338.2814,"arg_perigee_deg":85.9828,"mean_anomaly_deg":274.1294,"bstar":0.00042355,"rev_number":3821,"period_min":94.104812023553,"perigee_km":474.46681802088,"apogee_km":475.91149917511,"semimajor_km":6853.326158598,"source":"CELESTRAK","updated_at":"2026-05-25T13:38:20.935120Z"}}}